2020-085N

Last updated on Thu Dec 03 2020 00:02:04 GMT+0000 (Coordinated Universal Time)

1 46941U 20085N 20337.62591271 .00006206 00000-0 28217-3 0 9994 2 46941 97.3699 112.0031 0014978 255.2035 104.7543 15.20994409 1905
UTC large
Height (km)
Speed (km/s)
/
Latitude / Longitude
Inclination (degrees)
Orbital Period (minutes)
Azimuth
Elevation
Range (km)
Doppler Factor

Next 0 passes for location: London (51.5072 / 0.1276)

Sorry there are no passes over London.